Regional Weather Roundup
Issued by NWS State College, PA

Home | Current Version | Previous Version | Graphics & Text | Print | Product List | Glossary On
Versions: 1 2 3 4 5 6 7 8 9 10 11 12 13 14 15 16 17 18 19 20 21 22 23 24 25 26 27 28 29 30 31 32 33 34 35 36 37 38 39 40 41 42 43 44 45 46 47 48 49 50
000
ASUS41 KCTP 290503
RWRCTP

REGIONAL WEATHER ROUNDUP
NATIONAL WEATHER SERVICE STATE COLLEGE PA
100 AM EDT WED JUL 29 2015

Note: "fair" indicates few or no clouds below 12,000 feet with no
significant weather and/or obstructions to visibility.

* = STATION THAT DOES NOT REPORT PRECIPITATION /E.G. RAIN...SNOW...ETC/
    THUNDER OR FOG.

PAZ002>004-007>009-013>016-020>023-029>032-290600-
WESTERN PENNSYLVANIA

CITY           SKY/WX    TMP DP  RH WIND       PRES   REMARKS
ERIE           CLEAR     74  58  57 S6        30.02R
MEADVILLE      LGT RAIN  71  59  65 CALM      30.06R
FRANKLIN*      CLEAR     66  61  82 CALM      30.08R
NEW CASTLE     FAIR      68  68 100 CALM      30.04R
BEAVER COUNTY  NOT AVBL
BUTLER*        CLEAR     66  63  88 CALM      30.05R
PITTSBURGH INT PTCLDY    78  65  63 CALM      30.02R
PITTSBURGH     PTCLDY    75  64  68 E5        30.01S
INDIANA*       PTCLDY    70  63  78 CALM      30.08R
LATROBE        NOT AVBL
WASHINGTON CO* NOT AVBL
$$

PAZ004>006-010>012-017>019-024>028-033>037-041-042-045-046-049>053-290600-
CENTRAL PENNSYLVANIA

CITY           SKY/WX    TMP DP  RH WIND       PRES   REMARKS
BRADFORD       MOCLDY    63  60  90 CALM      30.10R
DUBOIS         CLEAR     70  61  73 CALM      30.07R
CLEARFIELD     CLEAR     64  60  87 N6        30.08R
JOHNSTOWN      PTCLDY    71  64  78 S5        30.09R
ALTOONA        CLEAR     66  63  90 CALM      30.06S
STATE COLLEGE  CLEAR     68  65  92 CALM      30.05S
WILLIAMSPORT   CLEAR     69  65  86 CALM      30.01S
SELINSGROVE    CLEAR     66  64  93 CALM      30.02S FOG
FT INDIANTOWN  CLEAR     68  67  97 NE1       30.01S
CAPITAL CITY   CLEAR     74  66  76 NW3       30.01R
HARRISBURG     PTCLDY    76  69  79 NE5       30.00S
YORK           CLEAR     69  67  93 CALM      30.02S FOG
$$

PAZ038>040-043-044-047-048-054-055-060>062-067>071-290600-
EASTERN PENNSYLVANIA

CITY           SKY/WX    TMP DP  RH WIND       PRES   REMARKS
SCRANTON       CLEAR     71  63  75 E6        30.04R
MOUNT POCONO   CLEAR     65  61  87 CALM      30.09S
ALLENTOWN      CLEAR     71  67  87 CALM      30.01R
QUAKERTOWN*    CLEAR     70  66  88 CALM      30.03S
READING        CLEAR     71  66  84 CALM      30.00S
LANCASTER      CLEAR     74  69  85 CALM      30.01S
COATESVILLE    CLEAR     75  72  88 W5        30.03S
POTTSTOWN      CLEAR     72  71  97 CALM      30.03R
BLUE BELL      CLEAR     75  72  88 CALM      30.00S
DOYLESTOWN     CLEAR     71  67  87 CALM      30.00S
WILLOW GROVE   NOT AVBL
NORTH PHILA    CLEAR     78  69  73 CALM      30.01S
PHILADELPHIA   PTCLDY    80  73  79 SW5       30.00S
$$


USA.gov is the U.S. government's official web portal to all federal, state and local government web resources and services.